Weather History for Skagway, AK

Change the Weather History Date:

Monday, October 13, 2014

  Actual Average Record
Temperature  
Mean Temperature 52 °F -  
Max Temperature 59 °F 46 °F 59 °F (2014)
Min Temperature 45 °F 37 °F 30 °F (1969)
Degree Days  
Heating Degree Days 13    
Growing Degree Days 2 (Base 50)    
Moisture  
Dew Point 43 °F    
Average Humidity 84    
Maximum Humidity 97    
Minimum Humidity 48    
Precipitation  
Precipitation 0.09 in - - ()
Sea Level Pressure  
Sea Level Pressure 29.50 in    
Wind  
Wind Speed 1 mph (NNE)    
Max Wind Speed 13 mph    
Max Gust Speed 17 mph    
Visibility 8 miles    
Events Rain    
Averages and records for this station are not official NWS values.
T = Trace of Precipitation, MM = Missing Value Source: NWS Daily Summary

Daily Weather History Graph

Daily Weather History Graph

Search for Another Location

Airport:

Trip Planner

Search our weather history database for the weather conditions in past years. The results will help you decide how hot, cold, wet, or windy it might be!

Date:

Astronomy

Oct. 13, 2014 Rise Set
Actual Time 7:35 AM AKDT 5:58 PM AKDT
Civil Twilight 6:53 AM AKDT 6:39 PM AKDT
Nautical Twilight 6:06 AM AKDT 7:27 PM AKDT
Astronomical Twilight 5:18 AM AKDT 8:14 PM AKDT
Moon 9:27 PM AKDT (10/13) 1:45 PM AKDT (10/13)
Length of Visible Light 11h 46m
Length of Day
10h 23m
Waning Gibbous, 69% of the Moon is Illuminated
Oct 13
Waning Gibbous
Oct 15
Last Quarter
Oct 23
New
Oct 30
First Quarter
Nov 6
Full

Hourly Weather History & Observations

Time (AKDT) Temp. Windchill Dew Point Humidity Pressure Visibility Wind Dir Wind Speed Gust Speed Precip Events Conditions
12:07 AM 46.0 °F - 44.1 °F 93% 29.54 in 9.0 mi Calm Calm - 0.01 in Rain Light Rain
12:16 AM 46.0 °F - 44.1 °F 93% 29.56 in 8.0 mi Calm Calm - 0.01 in Rain Light Rain
12:23 AM 46.0 °F - 45.0 °F 96% 29.55 in 8.0 mi Calm Calm - 0.02 in Rain Light Rain
12:34 AM 46.0 °F - 45.0 °F 96% 29.56 in 7.0 mi Calm Calm - 0.02 in Rain Light Rain
12:53 AM 46.9 °F - 44.1 °F 90% 29.57 in 6.0 mi Calm Calm - 0.03 in Rain Light Rain
1:11 AM 46.9 °F - 45.0 °F 93% 29.55 in 8.0 mi Calm Calm - 0.01 in Rain Light Rain
1:20 AM 46.9 °F - 45.0 °F 93% 29.57 in 8.0 mi Calm Calm - 0.01 in Rain Light Rain
1:53 AM 46.9 °F - 44.1 °F 90% 29.56 in 10.0 mi Calm Calm - 0.01 in   Overcast
2:17 AM 46.0 °F - 44.1 °F 93% 29.58 in 10.0 mi Calm Calm - 0.00 in   Overcast
2:39 AM 46.0 °F - 44.1 °F 93% 29.58 in 1.8 mi Calm Calm - 0.01 in Rain Light Rain
2:53 AM 46.0 °F - 44.1 °F 93% 29.57 in 1.5 mi Calm Calm - 0.01 in Rain Light Rain
2:59 AM 46.0 °F - 44.1 °F 93% 29.58 in 2.5 mi Calm Calm - 0.01 in Rain Light Rain
3:10 AM 46.0 °F - 45.0 °F 96% 29.58 in 3.0 mi Calm Calm - 0.02 in Rain Light Rain
3:24 AM 46.0 °F - 45.0 °F 96% 29.58 in 4.0 mi Calm Calm - 0.03 in Rain Light Rain
3:41 AM 46.9 °F - 45.0 °F 93% 29.58 in 6.0 mi Calm Calm - 0.03 in Rain Light Rain
3:51 AM 46.4 °F - 44.6 °F 93% 29.58 in 4.0 mi Calm Calm - 0.03 in   Overcast
3:53 AM 46.0 °F - 44.1 °F 93% 29.57 in 4.0 mi Calm Calm - 0.03 in   Overcast
4:36 AM 46.0 °F - 45.0 °F 96% 29.57 in 9.0 mi Calm Calm - N/A   Overcast
4:45 AM 45.0 °F - 44.1 °F 97% 29.58 in 1.8 mi Calm Calm - N/A   Overcast
4:51 AM 46.4 °F - 44.6 °F 93% 29.58 in 2.0 mi Calm Calm - N/A   Overcast
4:52 AM 46.0 °F - 45.0 °F 96% 29.58 in 3.0 mi Calm Calm - N/A   Overcast
5:21 AM 46.0 °F - 44.1 °F 93% 29.56 in 4.0 mi Calm Calm - N/A   Overcast
5:37 AM 46.0 °F - 44.1 °F 93% 29.56 in 7.0 mi Calm Calm - N/A   Overcast
5:53 AM 46.0 °F 44.8 °F 44.1 °F 93% 29.57 in 10.0 mi NNE 3.5 mph - N/A   Overcast
6:06 AM 46.0 °F - 44.1 °F 93% 29.57 in 10.0 mi Calm Calm - N/A   Overcast
6:53 AM 46.0 °F - 44.1 °F 93% 29.58 in 10.0 mi Calm Calm - N/A   Overcast
7:53 AM 46.0 °F - 44.1 °F 93% 29.57 in 10.0 mi Calm Calm - N/A   Overcast
8:04 AM 46.0 °F - 44.1 °F 93% 29.56 in 10.0 mi Calm Calm - N/A   Overcast
8:17 AM 46.0 °F - 44.1 °F 93% 29.57 in 10.0 mi Calm Calm - N/A   Overcast
8:24 AM 46.0 °F - 44.1 °F 93% 29.55 in 10.0 mi Calm Calm - N/A   Overcast
8:31 AM 46.0 °F - 44.1 °F 93% 29.56 in 10.0 mi Calm Calm - N/A   Overcast
8:38 AM 46.0 °F - 44.1 °F 93% 29.56 in 10.0 mi Calm Calm - N/A   Overcast
8:53 AM 46.0 °F 43.9 °F 43.0 °F 89% 29.56 in 10.0 mi NNE 4.6 mph - N/A   Overcast
9:53 AM 46.9 °F - 44.1 °F 90% 29.53 in 10.0 mi Calm Calm - N/A   Mostly Cloudy
10:53 AM 48.9 °F - 45.0 °F 86% 29.49 in 10.0 mi NE 3.5 mph - N/A   Scattered Clouds
11:53 AM 51.1 °F - 45.0 °F 80% 29.45 in 10.0 mi SW 3.5 mph - N/A   Clear
12:53 PM 55.9 °F - 43.0 °F 62% 29.40 in 10.0 mi Calm Calm - N/A   Clear
1:53 PM 59.0 °F - 39.0 °F 48% 29.37 in 10.0 mi NE 12.7 mph - N/A   Scattered Clouds
2:53 PM 55.9 °F - 39.0 °F 53% 29.34 in 10.0 mi NNE 10.4 mph - N/A   Overcast
3:53 PM 55.9 °F - 39.0 °F 53% 29.31 in 10.0 mi North 8.1 mph - N/A   Overcast
4:53 PM 55.9 °F - 39.0 °F 53% 29.29 in 10.0 mi NNE 9.2 mph - N/A   Overcast
5:53 PM 55.0 °F - 39.0 °F 55% 29.28 in 10.0 mi Variable 6.9 mph - 0.00 in   Overcast
6:53 PM 55.9 °F - 37.9 °F 51% 29.26 in 10.0 mi North 9.2 mph - 0.00 in Rain Light Rain
7:53 PM 54.0 °F - 39.0 °F 57% 29.27 in 10.0 mi Variable 5.8 mph - 0.00 in   Mostly Cloudy
8:53 PM 55.9 °F - 37.0 °F 49% 29.25 in 10.0 mi NNE 9.2 mph 17.3 mph N/A   Overcast
9:53 PM 54.0 °F - 39.0 °F 57% 29.27 in 10.0 mi NNE 6.9 mph - 0.00 in Rain Light Rain
10:53 PM 51.1 °F - 42.1 °F 71% 29.30 in 10.0 mi ENE 4.6 mph - 0.01 in   Overcast
11:53 PM 50.0 °F - 42.1 °F 74% 29.32 in 10.0 mi Calm Calm - 0.00 in Rain Light Rain